| time (UTC) | temp F | wind direction | speed knots | gust knots | rain 1hr in | rain 24hr in | rain mn in | humidity % | barometer mb |
| 20260502224550 | 64 | 35 | 1.7 | 8.7 | 0.00 | 0.00 | 0.00 | 89 | 1016.8 |
| 20260502223051 | 64 | 44 | 3.5 | 10.4 | 0.00 | 0.00 | 0.00 | 89 | 1016.8 |
| 20260502221549 | 64 | 33 | 4.3 | 10.4 | 0.00 | 0.00 | 0.00 | 89 | 1016.5 |
| 20260502220048 | 64 | 73 | 2.6 | 7.8 | 0.00 | 0.00 | 0.00 | 89 | 1016.8 |
| 20260502214554 | 64 | 37 | 3.5 | 7.8 | 0.00 | 0.00 | 0.00 | 89 | 1016.9 |
| 20260502213051 | 63 | 52 | 1.7 | 4.3 | 0.00 | 0.00 | 0.00 | 90 | 1017.3 |
| 20260502211551 | 63 | 44 | 2.6 | 6.1 | 0.00 | 0.00 | 0.00 | 91 | 1017.1 |
| 20260502210050 | 63 | 38 | 1.7 | 5.2 | 0.00 | 0.00 | 0.00 | 90 | 1017.2 |
| 20260502204602 | 63 | 1 | 2.6 | 4.3 | 0.00 | 0.00 | 0.00 | 89 | 1017.0 |
| 20260502203108 | 64 | 48 | 4.3 | 9.6 | 0.00 | 0.00 | 0.00 | 89 | 1016.7 |
| 20260502201545 | 64 | 94 | 4.3 | 9.6 | 0.00 | 0.00 | 0.00 | 89 | 1016.5 |
| 20260502200052 | 64 | 77 | 5.2 | 11.3 | 0.00 | 0.00 | 0.00 | 89 | 1016.3 |
| 20260502194554 | 64 | 77 | 5.2 | 9.6 | 0.00 | 0.00 | 0.00 | 89 | 1016.2 |
| 20260502193051 | 64 | 78 | 4.3 | 7.0 | 0.00 | 0.00 | 0.00 | 89 | 1016.3 |
| 20260502191558 | 65 | 59 | 3.5 | 8.7 | 0.00 | 0.00 | 0.00 | 88 | 1016.5 |
| 20260502190054 | 65 | 120 | 2.6 | 9.6 | 0.00 | 0.00 | 0.00 | 88 | 1016.5 |
| 20260502184551 | 65 | 56 | 3.5 | 8.7 | 0.00 | 0.00 | 0.00 | 88 | 1016.2 |
| 20260502183057 | 65 | 73 | 5.2 | 10.4 | 0.00 | 0.00 | 0.00 | 88 | 1016.3 |
| 20260502181608 | 65 | 33 | 6.1 | 10.4 | 0.00 | 0.00 | 0.00 | 87 | 1016.5 |
| 20260502163056 | 67 | 105 | 3.5 | 10.4 | 0.00 | 0.00 | 0.00 | 86 | 1017.1 |
| 20260502161559 | 67 | 80 | 4.3 | 7.8 | 0.00 | 0.00 | 0.00 | 85 | 1017.2 |
| 20260502151602 | 67 | 75 | 4.3 | 7.8 | 0.00 | 0.00 | 0.00 | 84 | 1017.8 |
| 20260502123053 | 69 | 52 | 7.8 | 13.9 | 0.00 | 0.00 | 0.00 | 80 | 1019.1 |
| 20260502121555 | 69 | 72 | 5.2 | 11.3 | 0.00 | 0.00 | 0.00 | 79 | 1019.5 |
| 20260502114556 | 68 | 63 | 4.3 | 13.0 | 0.00 | 0.00 | 0.00 | 82 | 1020.1 |
| 20260502113053 | 68 | 75 | 5.2 | 9.6 | 0.00 | 0.00 | 0.00 | 82 | 1019.8 |
| 20260502111551 | 68 | 131 | 7.0 | 10.4 | 0.00 | 0.00 | 0.00 | 83 | 1020.2 |
| 20260502110058 | 68 | 56 | 6.1 | 10.4 | 0.00 | 0.00 | 0.00 | 83 | 1020.3 |
| 20260502104550 | 67 | 84 | 6.1 | 11.3 | 0.00 | 0.00 | 0.00 | 84 | 1020.4 |
| 20260502103059 | 68 | 88 | 5.2 | 11.3 | 0.00 | 0.00 | 0.00 | 82 | 1020.4 |
| 20260502101552 | 68 | 110 | 5.2 | 10.4 | 0.00 | 0.00 | 0.00 | 82 | 1020.7 |
| 20260502080104 | 66 | 49 | 4.3 | 11.3 | 0.00 | 0.00 | 0.00 | 85 | 1020.6 |
| 20260502070056 | 66 | 59 | 4.3 | 8.7 | 0.00 | 0.00 | 0.00 | 85 | 1020.9 |
| 20260502064600 | 66 | 49 | 4.3 | 9.6 | 0.00 | 0.00 | 0.00 | 84 | 1020.8 |
| 20260502063052 | 65 | 37 | 0.9 | 7.0 | 0.00 | 0.00 | 0.00 | 86 | 1020.7 |
| 20260502061555 | 64 | 45 | 1.7 | 4.3 | 0.00 | 0.00 | 0.00 | 87 | 1020.7 |
| 20260502060054 | 64 | 0 | 0.0 | 0.9 | 0.00 | 0.00 | 0.00 | 89 | 1020.6 |
| 20260502054558 | 64 | 0 | 0.0 | 0.9 | 0.00 | 0.00 | 0.00 | 90 | 1020.5 |
| 20260502053052 | 63 | 0 | 0.0 | 0.0 | 0.00 | 0.00 | 0.00 | 90 | 1020.7 |
| 20260502051552 | 63 | 0 | 0.0 | 0.0 | 0.00 | 0.00 | 0.00 | 90 | 1020.5 |
| 20260502050051 | 63 | 0 | 0.0 | 0.0 | 0.00 | 0.00 | 0.00 | 90 | 1020.3 |
| 20260502044550 | 63 | 0 | 0.0 | 0.0 | 0.00 | 0.00 | 0.00 | 90 | 1020.3 |
| 20260502043056 | 63 | 6 | 0.9 | 2.6 | 0.00 | 0.00 | 0.00 | 89 | 1020.3 |
| 20260502041552 | 63 | 25 | 0.9 | 3.5 | 0.00 | 0.00 | 0.00 | 89 | 1020.3 |
| 20260502040106 | 63 | 26 | 1.7 | 4.3 | 0.00 | 0.00 | 0.00 | 89 | 1020.6 |
| 20260502034554 | 63 | 354 | 2.6 | 5.2 | 0.00 | 0.00 | 0.00 | 90 | 1020.4 |
| 20260502033054 | 63 | 354 | 3.5 | 6.1 | 0.00 | 0.00 | 0.00 | 90 | 1020.5 |
| 20260502031555 | 63 | 17 | 2.6 | 5.2 | 0.00 | 0.00 | 0.00 | 90 | 1020.7 |
| 20260502030051 | 63 | 23 | 1.7 | 3.5 | 0.00 | 0.00 | 0.00 | 89 | 1020.6 |
| 20260502024550 | 64 | 47 | 1.7 | 5.2 | 0.00 | 0.00 | 0.00 | 87 | 1020.6 |
| 20260502023054 | 64 | 68 | 1.7 | 7.8 | 0.00 | 0.00 | 0.00 | 87 | 1020.6 |
| 20260502021550 | 64 | 71 | 3.5 | 8.7 | 0.00 | 0.00 | 0.00 | 86 | 1020.6 |
| 20260502020104 | 64 | 77 | 2.6 | 7.8 | 0.00 | 0.00 | 0.00 | 88 | 1020.7 |
| 20260502014551 | 64 | 79 | 3.5 | 6.1 | 0.00 | 0.00 | 0.00 | 88 | 1020.6 |
| 20260502013052 | 63 | 72 | 0.9 | 3.5 | 0.00 | 0.00 | 0.00 | 90 | 1020.8 |
| 20260502011557 | 62 | 0 | 0.0 | 0.0 | 0.00 | 0.00 | 0.00 | 90 | 1021.0 |
| 20260502010055 | 63 | 0 | 0.0 | 0.0 | 0.00 | 0.00 | 0.00 | 90 | 1021.2 |
| 20260502004556 | 63 | 0 | 0.0 | 0.0 | 0.00 | 0.00 | 0.00 | 90 | 1021.5 |
| 20260502003113 | 63 | 0 | 0.0 | 0.0 | 0.00 | 0.00 | 0.00 | 90 | 1021.7 |
| 20260502001628 | 63 | 320 | 0.0 | 1.7 | 0.00 | 0.00 | 0.00 | 89 | 1022.1 |
| 20260502000052 | 64 | 0 | 0.0 | 0.9 | 0.00 | 0.00 | 0.00 | 88 | 1022.2 |
| 20260501234553 | 65 | 297 | 0.0 | 7.0 | 0.00 | 0.02 | 0.00 | 86 | 1022.2 |
| 20260501233054 | 65 | 66 | 2.6 | 9.6 | 0.00 | 0.02 | 0.00 | 85 | 1022.2 |
| 20260501231554 | 65 | 68 | 3.5 | 8.7 | 0.00 | 0.02 | 0.00 | 86 | 1022.1 |
| 20260501230056 | 65 | 67 | 6.1 | 11.3 | 0.00 | 0.02 | 0.00 | 87 | 1022.0 |